EAG5501 SBBR-SBGR

Flight info

Callsign EAG5501
Flight time 1h 16m
Altitude 38000
Route ENRUR UZ38 VUNOX
Aircraft A332/H-SDE2E3FGHIJ4J5M1RWXY/LB1D1

Departure

Time 2026-05-06 18:28
Airport Presidente Juscelino Kubitschek International Airport (SBBR)

Arrival

Time 2026-05-06 19:44
Airport São Paulo/Guarulhos–Governor André Franco Montoro International Airport (SBGR)
Time Latitude Longitude Altitude Speed Heading
2026-05-06 18:22 -15.86657 -47.92339 3476 ft 0 kts 207°
2026-05-06 18:22 -15.86637 -47.92328 3475 ft 4 kts 212°
2026-05-06 18:22 -15.86615 -47.92313 3475 ft 4 kts 221°
2026-05-06 18:23 -15.86596 -47.92292 3473 ft 4 kts 239°
2026-05-06 18:23 -15.86589 -47.92270 3471 ft 4 kts 293°
2026-05-06 18:23 -15.86591 -47.92265 3471 ft 0 kts 303°
2026-05-06 18:24 -15.86589 -47.92267 3471 ft 2 kts 303°
2026-05-06 18:24 -15.86570 -47.92299 3473 ft 8 kts 303°
2026-05-06 18:25 -15.86544 -47.92341 3475 ft 6 kts 301°
2026-05-06 18:25 -15.86531 -47.92376 3475 ft 5 kts 285°
2026-05-06 18:25 -15.86531 -47.92437 3479 ft 13 kts 267°
2026-05-06 18:25 -15.86539 -47.92563 3474 ft 21 kts 266°
2026-05-06 18:26 -15.86545 -47.92725 3465 ft 20 kts 281°
2026-05-06 18:26 -15.86484 -47.92766 3466 ft 11 kts 355°
2026-05-06 18:26 -15.86401 -47.92754 3462 ft 13 kts 24°
2026-05-06 18:26 -15.86353 -47.92683 3462 ft 11 kts 81°
2026-05-06 18:27 -15.86348 -47.92606 3465 ft 15 kts 86°
2026-05-06 18:27 -15.86327 -47.92276 3471 ft 80 kts 86°
2026-05-06 18:27 -15.86275 -47.91473 3468 ft 140 kts 86°
2026-05-06 18:27 -15.86203 -47.90303 3653 ft 174 kts 87°
2026-05-06 18:28 -15.86336 -47.89068 4498 ft 178 kts 115°
2026-05-06 18:28 -15.87308 -47.88322 5347 ft 179 kts 163°
2026-05-06 18:28 -15.88592 -47.88308 5957 ft 192 kts 175°
2026-05-06 18:28 -15.89981 -47.88257 6303 ft 208 kts 171°
2026-05-06 18:29 -15.91478 -47.88055 6687 ft 225 kts 167°
2026-05-06 18:29 -15.93109 -47.87741 7045 ft 251 kts 165°
2026-05-06 18:29 -15.94872 -47.87353 7603 ft 265 kts 164°
2026-05-06 18:29 -15.96701 -47.86927 8345 ft 273 kts 164°
2026-05-06 18:30 -15.98577 -47.86477 9101 ft 280 kts 163°
2026-05-06 18:30 -16.00507 -47.86008 9863 ft 287 kts 163°
2026-05-06 18:30 -16.02469 -47.85527 10509 ft 296 kts 163°
2026-05-06 18:30 -16.04534 -47.85016 10868 ft 314 kts 163°
2026-05-06 18:31 -16.06729 -47.84519 11200 ft 333 kts 169°
2026-05-06 18:31 -16.09113 -47.84387 11514 ft 352 kts 178°
2026-05-06 18:31 -16.11616 -47.84410 11856 ft 366 kts 179°
2026-05-06 18:31 -16.14152 -47.84292 12331 ft 373 kts 170°
2026-05-06 18:32 -16.16687 -47.83700 12921 ft 374 kts 159°
2026-05-06 18:32 -16.19097 -47.82664 13551 ft 376 kts 153°
2026-05-06 18:32 -16.21470 -47.81492 14140 ft 380 kts 153°
2026-05-06 18:32 -16.23863 -47.80294 14673 ft 384 kts 153°
2026-05-06 18:33 -16.26286 -47.79081 15180 ft 388 kts 153°
2026-05-06 18:33 -16.28729 -47.77860 15805 ft 390 kts 153°
2026-05-06 18:33 -16.31172 -47.76641 16415 ft 391 kts 153°
2026-05-06 18:33 -16.33636 -47.75413 16931 ft 395 kts 153°
2026-05-06 18:34 -16.36131 -47.74170 17471 ft 399 kts 154°
2026-05-06 18:34 -16.38657 -47.72911 17929 ft 405 kts 154°
2026-05-06 18:34 -16.41218 -47.71635 18451 ft 409 kts 154°
2026-05-06 18:34 -16.43788 -47.70354 18983 ft 411 kts 154°
2026-05-06 18:35 -16.46370 -47.69067 19537 ft 412 kts 154°
2026-05-06 18:35 -16.48958 -47.67777 20057 ft 414 kts 154°
2026-05-06 18:35 -16.51565 -47.66477 20592 ft 415 kts 155°
2026-05-06 18:35 -16.54176 -47.65174 21103 ft 417 kts 155°
2026-05-06 18:36 -16.56805 -47.63862 21591 ft 420 kts 155°
2026-05-06 18:36 -16.59445 -47.62544 22100 ft 421 kts 155°
2026-05-06 18:36 -16.62095 -47.61222 22615 ft 423 kts 155°
2026-05-06 18:36 -16.64751 -47.59895 23087 ft 425 kts 155°
2026-05-06 18:37 -16.67433 -47.58554 23539 ft 428 kts 155°
2026-05-06 18:37 -16.69215 -47.57663 23794 ft 430 kts 156°
2026-05-06 18:37 -16.72835 -47.55853 24340 ft 432 kts 156°
2026-05-06 18:37 -16.75545 -47.54498 24755 ft 434 kts 156°
2026-05-06 18:38 -16.78278 -47.53131 25159 ft 435 kts 156°
2026-05-06 18:38 -16.81012 -47.51762 25564 ft 437 kts 156°
2026-05-06 18:38 -16.83760 -47.50387 25956 ft 439 kts 156°
2026-05-06 18:38 -16.86519 -47.49005 26345 ft 440 kts 157°
2026-05-06 18:39 -16.89289 -47.47617 26758 ft 442 kts 157°
2026-05-06 18:39 -16.92069 -47.46224 27136 ft 444 kts 157°
2026-05-06 18:39 -16.94850 -47.44830 27516 ft 445 kts 157°
2026-05-06 18:40 -17.00461 -47.42016 28214 ft 449 kts 158°
2026-05-06 18:40 -17.03279 -47.40602 28542 ft 451 kts 158°
2026-05-06 18:40 -17.06115 -47.39178 28884 ft 453 kts 158°
2026-05-06 18:40 -17.08922 -47.37769 29229 ft 454 kts 158°
2026-05-06 18:41 -17.11774 -47.36336 29549 ft 456 kts 158°
2026-05-06 18:41 -17.14632 -47.34899 29896 ft 457 kts 158°
2026-05-06 18:41 -17.17492 -47.33461 30317 ft 455 kts 158°
2026-05-06 18:41 -17.20337 -47.32029 30721 ft 453 kts 158°
2026-05-06 18:42 -17.23176 -47.30600 31103 ft 451 kts 158°
2026-05-06 18:42 -17.25999 -47.29180 31486 ft 450 kts 158°
2026-05-06 18:42 -17.28811 -47.27764 31877 ft 448 kts 158°
2026-05-06 18:42 -17.31616 -47.26351 32237 ft 446 kts 158°
2026-05-06 18:43 -17.34409 -47.24945 32590 ft 444 kts 158°
2026-05-06 18:43 -17.37188 -47.23545 32956 ft 443 kts 158°
2026-05-06 18:43 -17.39960 -47.22147 33288 ft 441 kts 159°
2026-05-06 18:43 -17.42726 -47.20753 33637 ft 440 kts 159°
2026-05-06 18:44 -17.45476 -47.19366 33977 ft 439 kts 159°
2026-05-06 18:44 -17.48220 -47.17981 34271 ft 438 kts 159°
2026-05-06 18:44 -17.50986 -47.16661 34538 ft 435 kts 162°
2026-05-06 18:44 -17.53804 -47.15531 34750 ft 434 kts 164°
2026-05-06 18:45 -17.56647 -47.14464 34935 ft 434 kts 165°
2026-05-06 18:45 -17.59501 -47.13429 35142 ft 434 kts 165°
2026-05-06 18:45 -17.62361 -47.12403 35374 ft 434 kts 166°
2026-05-06 18:45 -17.64253 -47.11724 35543 ft 434 kts 166°
2026-05-06 18:46 -17.68073 -47.10346 35837 ft 434 kts 166°
2026-05-06 18:46 -17.70920 -47.09311 36030 ft 434 kts 166°
2026-05-06 18:46 -17.73784 -47.08267 36230 ft 435 kts 166°
2026-05-06 18:46 -17.76639 -47.07222 36422 ft 435 kts 166°
2026-05-06 18:47 -17.79490 -47.06177 36606 ft 435 kts 166°
2026-05-06 18:47 -17.82350 -47.05128 36791 ft 435 kts 166°
2026-05-06 18:47 -17.85207 -47.04081 36980 ft 436 kts 166°
2026-05-06 18:47 -17.88066 -47.03031 37258 ft 434 kts 166°
2026-05-06 18:48 -17.90913 -47.01985 37474 ft 433 kts 166°
2026-05-06 18:48 -17.92798 -47.01293 37586 ft 434 kts 166°
2026-05-06 18:48 -17.95651 -47.00246 37755 ft 434 kts 166°
2026-05-06 18:48 -17.98499 -46.99200 37948 ft 434 kts 166°
2026-05-06 18:49 -18.01354 -46.98152 38050 ft 436 kts 166°
2026-05-06 18:49 -18.07055 -46.96056 38066 ft 431 kts 166°
2026-05-06 18:50 -18.12704 -46.93976 38069 ft 428 kts 167°
2026-05-06 18:50 -18.18327 -46.91908 38071 ft 428 kts 167°
2026-05-06 18:51 -18.23951 -46.89838 38076 ft 428 kts 167°
2026-05-06 18:51 -18.29577 -46.87765 38074 ft 428 kts 167°
2026-05-06 18:52 -18.35209 -46.85692 38083 ft 435 kts 166°
2026-05-06 18:52 -18.40981 -46.83566 38084 ft 444 kts 166°
2026-05-06 18:53 -18.46844 -46.81401 38089 ft 447 kts 166°
2026-05-06 18:53 -18.52694 -46.79232 38088 ft 445 kts 166°
2026-05-06 18:54 -18.58530 -46.77071 38089 ft 444 kts 166°
2026-05-06 18:54 -18.64355 -46.74915 38090 ft 443 kts 166°
2026-05-06 18:55 -18.70178 -46.72759 38090 ft 443 kts 166°
2026-05-06 18:55 -18.76000 -46.70602 38095 ft 443 kts 166°
2026-05-06 18:56 -18.81818 -46.68444 38092 ft 443 kts 166°
2026-05-06 18:56 -18.87630 -46.66286 38095 ft 442 kts 166°
2026-05-06 18:57 -18.93438 -46.64129 38093 ft 442 kts 166°
2026-05-06 18:57 -18.99224 -46.61890 38095 ft 443 kts 165°
2026-05-06 18:58 -19.04980 -46.59537 38105 ft 444 kts 165°
2026-05-06 18:58 -19.10742 -46.57183 38098 ft 443 kts 165°
2026-05-06 18:59 -19.16489 -46.54954 38096 ft 440 kts 169°
2026-05-06 18:59 -19.22390 -46.53369 38108 ft 437 kts 172°
2026-05-06 19:00 -19.28329 -46.52010 38100 ft 436 kts 173°
2026-05-06 19:00 -19.34266 -46.50684 38111 ft 436 kts 173°
2026-05-06 19:01 -19.40211 -46.49336 38110 ft 436 kts 173°
2026-05-06 19:01 -19.46146 -46.47975 38101 ft 437 kts 173°
2026-05-06 19:02 -19.52074 -46.46608 38119 ft 435 kts 173°
2026-05-06 19:02 -19.57988 -46.45245 38123 ft 435 kts 173°
2026-05-06 19:03 -19.63900 -46.43883 38109 ft 435 kts 173°
2026-05-06 19:03 -19.69777 -46.42528 38120 ft 435 kts 173°
2026-05-06 19:04 -19.75693 -46.41162 38113 ft 434 kts 173°
2026-05-06 19:04 -19.81598 -46.39798 38117 ft 434 kts 173°
2026-05-06 19:05 -19.87509 -46.38433 38133 ft 434 kts 173°
2026-05-06 19:05 -19.93418 -46.37065 38125 ft 434 kts 173°
2026-05-06 19:06 -19.99314 -46.35699 38127 ft 433 kts 173°
2026-05-06 19:06 -20.05197 -46.34336 38127 ft 432 kts 173°
2026-05-06 19:07 -20.11074 -46.32974 38123 ft 432 kts 173°
2026-05-06 19:07 -20.16915 -46.31619 38121 ft 432 kts 173°
2026-05-06 19:08 -20.22787 -46.30255 38118 ft 431 kts 173°
2026-05-06 19:08 -20.28652 -46.28892 38118 ft 431 kts 173°
2026-05-06 19:09 -20.34517 -46.27528 38112 ft 432 kts 173°
2026-05-06 19:09 -20.40382 -46.26163 38113 ft 431 kts 173°
2026-05-06 19:10 -20.46228 -46.24801 38114 ft 430 kts 173°
2026-05-06 19:10 -20.52077 -46.23438 38114 ft 430 kts 173°
2026-05-06 19:11 -20.57921 -46.22075 38117 ft 430 kts 173°
2026-05-06 19:11 -20.63761 -46.20711 38115 ft 429 kts 173°
2026-05-06 19:12 -20.69604 -46.19346 38110 ft 429 kts 173°
2026-05-06 19:12 -20.75405 -46.17990 38114 ft 430 kts 173°
2026-05-06 19:13 -20.81245 -46.16623 38124 ft 430 kts 173°
2026-05-06 19:13 -20.87083 -46.15255 38117 ft 428 kts 173°
2026-05-06 19:14 -20.92897 -46.13891 38106 ft 428 kts 173°
2026-05-06 19:14 -20.98716 -46.12527 38107 ft 428 kts 173°
2026-05-06 19:15 -21.04534 -46.11162 38115 ft 428 kts 173°
2026-05-06 19:15 -21.10350 -46.09795 38115 ft 428 kts 173°
2026-05-06 19:16 -21.16165 -46.08427 38112 ft 428 kts 173°
2026-05-06 19:16 -21.21942 -46.07068 38110 ft 428 kts 173°
2026-05-06 19:17 -21.27766 -46.05697 38114 ft 428 kts 173°
2026-05-06 19:17 -21.33582 -46.04326 38113 ft 428 kts 173°
2026-05-06 19:18 -21.39394 -46.02955 38113 ft 428 kts 173°
2026-05-06 19:18 -21.45218 -46.01580 38123 ft 428 kts 173°
2026-05-06 19:19 -21.51068 -46.01192 38121 ft 417 kts 191°
2026-05-06 19:19 -21.56724 -46.02417 38116 ft 411 kts 195°
2026-05-06 19:20 -21.62139 -46.03765 38042 ft 392 kts 195°
2026-05-06 19:20 -21.64790 -46.04430 37501 ft 392 kts 195°
2026-05-06 19:20 -21.67462 -46.05102 36826 ft 397 kts 195°
2026-05-06 19:20 -21.70159 -46.05781 36185 ft 399 kts 195°
2026-05-06 19:21 -21.72877 -46.06464 35524 ft 403 kts 195°
2026-05-06 19:21 -21.75622 -46.07154 34820 ft 408 kts 195°
2026-05-06 19:21 -21.78412 -46.07855 34085 ft 413 kts 194°
2026-05-06 19:21 -21.81229 -46.08563 33250 ft 418 kts 194°
2026-05-06 19:22 -21.84073 -46.09277 32437 ft 421 kts 194°
2026-05-06 19:22 -21.86941 -46.09999 31633 ft 426 kts 194°
2026-05-06 19:22 -21.89848 -46.10731 30785 ft 431 kts 194°
2026-05-06 19:22 -21.92786 -46.11471 29846 ft 437 kts 194°
2026-05-06 19:23 -21.95773 -46.12224 28855 ft 442 kts 194°
2026-05-06 19:23 -21.98753 -46.12974 28265 ft 439 kts 194°
2026-05-06 19:23 -22.01716 -46.13720 27660 ft 436 kts 194°
2026-05-06 19:23 -22.04665 -46.14463 27035 ft 433 kts 194°
2026-05-06 19:24 -22.07594 -46.15203 26417 ft 431 kts 194°
2026-05-06 19:24 -22.10475 -46.15930 25806 ft 430 kts 194°
2026-05-06 19:24 -22.13388 -46.16666 25183 ft 429 kts 193°
2026-05-06 19:24 -22.16292 -46.17400 24551 ft 429 kts 193°
2026-05-06 19:25 -22.19198 -46.18134 23930 ft 429 kts 193°
2026-05-06 19:25 -22.22107 -46.18870 23223 ft 429 kts 193°
2026-05-06 19:25 -22.25010 -46.19604 22555 ft 428 kts 193°
2026-05-06 19:25 -22.27903 -46.20337 21903 ft 426 kts 193°
2026-05-06 19:26 -22.30782 -46.21060 21252 ft 425 kts 192°
2026-05-06 19:26 -22.33696 -46.21623 20528 ft 425 kts 188°
2026-05-06 19:26 -22.36630 -46.22087 19847 ft 425 kts 188°
2026-05-06 19:26 -22.39548 -46.22534 19218 ft 423 kts 187°
2026-05-06 19:27 -22.42456 -46.22981 18812 ft 417 kts 187°
2026-05-06 19:27 -22.45288 -46.23417 18595 ft 405 kts 187°
2026-05-06 19:27 -22.48039 -46.23842 18378 ft 394 kts 187°
2026-05-06 19:27 -22.50717 -46.24258 18144 ft 384 kts 187°
2026-05-06 19:28 -22.53306 -46.24660 17949 ft 363 kts 187°
2026-05-06 19:28 -22.55679 -46.25030 17806 ft 336 kts 187°
2026-05-06 19:28 -22.58013 -46.25392 17722 ft 345 kts 187°
2026-05-06 19:28 -22.60406 -46.25761 17672 ft 346 kts 187°
2026-05-06 19:29 -22.62782 -46.26130 17416 ft 344 kts 187°
2026-05-06 19:29 -22.65154 -46.26498 17212 ft 346 kts 187°
2026-05-06 19:29 -22.67535 -46.26868 17017 ft 344 kts 187°
2026-05-06 19:29 -22.69904 -46.27236 16802 ft 344 kts 187°
2026-05-06 19:30 -22.72281 -46.27606 16619 ft 344 kts 187°
2026-05-06 19:30 -22.74640 -46.27973 16400 ft 343 kts 187°
2026-05-06 19:30 -22.76995 -46.28357 16216 ft 341 kts 189°
2026-05-06 19:30 -22.79222 -46.29187 15993 ft 341 kts 205°
2026-05-06 19:31 -22.81295 -46.30473 15790 ft 344 kts 210°
2026-05-06 19:31 -22.83331 -46.31830 15627 ft 343 kts 210°
2026-05-06 19:31 -22.87398 -46.34545 15162 ft 342 kts 210°
2026-05-06 19:32 -22.89436 -46.35866 14905 ft 341 kts 208°
2026-05-06 19:32 -22.91508 -46.37120 14593 ft 340 kts 207°
2026-05-06 19:32 -22.93578 -46.38361 14227 ft 340 kts 207°
2026-05-06 19:32 -22.95649 -46.39611 13857 ft 340 kts 207°
2026-05-06 19:33 -22.97710 -46.40859 13461 ft 339 kts 207°
2026-05-06 19:33 -22.99766 -46.42108 13053 ft 338 kts 207°
2026-05-06 19:33 -23.01791 -46.43340 12679 ft 338 kts 208°
2026-05-06 19:33 -23.03840 -46.44588 12300 ft 337 kts 208°
2026-05-06 19:34 -23.05878 -46.45831 11947 ft 335 kts 208°
2026-05-06 19:34 -23.07903 -46.47066 11604 ft 333 kts 208°
2026-05-06 19:34 -23.09917 -46.48295 11228 ft 332 kts 208°
2026-05-06 19:34 -23.11932 -46.49524 10841 ft 332 kts 208°
2026-05-06 19:35 -23.13945 -46.50753 10479 ft 331 kts 209°
2026-05-06 19:35 -23.15948 -46.51976 10136 ft 329 kts 209°
2026-05-06 19:35 -23.17917 -46.53180 9971 ft 321 kts 210°
2026-05-06 19:35 -23.19831 -46.54351 9814 ft 308 kts 209°
2026-05-06 19:36 -23.21634 -46.55465 9480 ft 290 kts 211°
2026-05-06 19:36 -23.23310 -46.56636 8945 ft 282 kts 213°
2026-05-06 19:36 -23.24923 -46.57811 8479 ft 282 kts 213°
2026-05-06 19:36 -23.26602 -46.59026 8361 ft 294 kts 213°
2026-05-06 19:37 -23.28298 -46.60248 8319 ft 287 kts 212°
2026-05-06 19:37 -23.29993 -46.61458 8173 ft 295 kts 213°
2026-05-06 19:37 -23.31128 -46.62267 8021 ft 295 kts 213°
2026-05-06 19:37 -23.32852 -46.63493 7675 ft 296 kts 212°
2026-05-06 19:38 -23.34569 -46.64714 7203 ft 291 kts 213°
2026-05-06 19:38 -23.36225 -46.65891 6734 ft 279 kts 212°
2026-05-06 19:38 -23.37820 -46.67030 6244 ft 269 kts 212°
2026-05-06 19:38 -23.39340 -46.68110 5968 ft 252 kts 212°
2026-05-06 19:39 -23.40854 -46.68921 5757 ft 234 kts 193°
2026-05-06 19:39 -23.42407 -46.69012 5545 ft 219 kts 167°
2026-05-06 19:39 -23.43842 -46.68339 5372 ft 232 kts 139°
2026-05-06 19:39 -23.44944 -46.67030 5207 ft 239 kts 125°
2026-05-06 19:40 -23.45888 -46.65538 5024 ft 239 kts 122°
2026-05-06 19:40 -23.46747 -46.64009 4815 ft 231 kts 114°
2026-05-06 19:40 -23.47086 -46.62396 4652 ft 215 kts 87°
2026-05-06 19:40 -23.46839 -46.60895 4636 ft 188 kts 75°
2026-05-06 19:41 -23.46484 -46.59618 4564 ft 167 kts 73°
2026-05-06 19:41 -23.46165 -46.58461 4351 ft 153 kts 75°
2026-05-06 19:41 -23.45879 -46.57392 4144 ft 142 kts 74°
2026-05-06 19:41 -23.45600 -46.56359 3968 ft 143 kts 75°
2026-05-06 19:42 -23.45320 -46.55325 3805 ft 143 kts 74°
2026-05-06 19:42 -23.45037 -46.54278 3599 ft 142 kts 73°
2026-05-06 19:42 -23.44759 -46.53249 3415 ft 142 kts 75°
2026-05-06 19:42 -23.44479 -46.52213 3252 ft 143 kts 76°
2026-05-06 19:43 -23.44201 -46.51187 3054 ft 141 kts 76°
2026-05-06 19:43 -23.43912 -46.50138 2871 ft 147 kts 75°
2026-05-06 19:43 -23.43624 -46.49084 2635 ft 141 kts 76°
2026-05-06 19:43 -23.43358 -46.48077 2487 ft 136 kts 76°
2026-05-06 19:44 -23.43124 -46.47212 2471 ft 84 kts 73°
2026-05-06 19:44 -23.43022 -46.46829 2472 ft 21 kts 72°
2026-05-06 19:44 -23.42927 -46.46773 2470 ft 18 kts 347°
2026-05-06 19:44 -23.42883 -46.46786 2470 ft 4 kts 345°
2026-05-06 19:45 -23.42821 -46.46805 2472 ft 11 kts 344°
2026-05-06 19:45 -23.42776 -46.46856 2469 ft 11 kts 278°
2026-05-06 19:45 -23.42794 -46.46947 2473 ft 14 kts 255°